Time,TemperatureF,DewpointF,PressureIn,WindDirection,WindDirectionDegrees,WindSpeedMPH,WindSpeedGustMPH,Humidity,HourlyPrecipIn,Conditions,Clouds,dailyrainin,SoftwareType,DateUTC
2013-03-12 00:01:00,22.5,16.1,29.95,North,351,0.0,1.0,76,0.00,,,0.00,WeatherCatV1.14B232,2013-03-12 05:01:00,
2013-03-12 00:06:00,22.4,16.0,29.95,NNW,347,2.0,3.0,76,0.00,,,0.00,WeatherCatV1.14B232,2013-03-12 05:06:00,
2013-03-12 00:11:00,22.2,15.8,29.95,NNW,347,1.0,1.0,76,0.00,,,0.00,WeatherCatV1.14B232,2013-03-12 05:11:00,
2013-03-12 00:16:00,22.1,16.0,29.96,NNW,347,0.0,0.0,77,0.00,,,0.00,WeatherCatV1.14B232,2013-03-12 05:16:00,
2013-03-12 00:21:00,21.9,15.8,29.96,NNW,347,0.0,0.0,77,0.00,,,0.00,WeatherCatV1.14B232,2013-03-12 05:21:00,
2013-03-12 00:26:00,21.8,15.7,29.96,NNW,347,0.0,1.0,77,0.00,,,0.00,WeatherCatV1.14B232,2013-03-12 05:26:00,
2013-03-12 00:31:00,21.6,15.5,29.96,NNW,347,0.0,1.0,77,0.00,,,0.00,WeatherCatV1.14B232,2013-03-12 05:31:00,
2013-03-12 00:36:00,21.3,15.2,29.96,NNW,347,0.0,0.0,77,0.00,,,0.00,WeatherCatV1.14B232,2013-03-12 05:36:00,
2013-03-12 00:41:00,21.3,15.5,29.96,NNW,347,1.0,4.0,78,0.00,,,0.00,WeatherCatV1.14B232,2013-03-12 05:41:00,
2013-03-12 00:46:00,21.1,15.3,29.96,NNW,347,0.0,1.0,78,0.00,,,0.00,WeatherCatV1.14B232,2013-03-12 05:46:00,
2013-03-12 00:51:00,21.0,15.2,29.96,NNW,346,1.0,1.0,78,0.00,,,0.00,WeatherCatV1.14B232,2013-03-12 05:51:00,
2013-03-12 00:56:00,21.0,15.5,29.96,NNW,340,2.0,3.0,79,0.00,,,0.00,WeatherCatV1.14B232,2013-03-12 05:56:00,
2013-03-12 01:01:00,21.0,15.5,29.96,NNW,336,1.0,4.0,79,0.00,,,0.00,WeatherCatV1.14B232,2013-03-12 06:01:00,
2013-03-12 01:06:00,21.1,15.6,29.96,NNW,336,0.0,1.0,79,0.00,,,0.00,WeatherCatV1.14B232,2013-03-12 06:06:00,
2013-03-12 01:12:00,21.1,15.3,29.96,NNW,336,0.0,0.0,78,0.00,,,0.00,WeatherCatV1.14B232,2013-03-12 06:12:00,
2013-03-12 01:17:00,20.8,15.0,29.97,NNW,336,0.0,0.0,78,0.00,,,0.00,WeatherCatV1.14B232,2013-03-12 06:17:00,
2013-03-12 01:22:00,20.6,15.1,29.97,NNW,336,0.0,0.0,79,0.00,,,0.00,WeatherCatV1.14B232,2013-03-12 06:22:00,
2013-03-12 01:27:00,20.3,14.8,29.97,NNW,336,0.0,0.0,79,0.00,,,0.00,WeatherCatV1.14B232,2013-03-12 06:27:00,
2013-03-12 01:32:00,20.3,14.8,29.97,NNW,336,0.0,0.0,79,0.00,,,0.00,WeatherCatV1.14B232,2013-03-12 06:32:00,
2013-03-12 01:37:00,20.3,15.1,29.97,NNW,336,1.0,2.0,80,0.00,,,0.00,WeatherCatV1.14B232,2013-03-12 06:37:00,
2013-03-12 01:42:00,21.0,16.1,29.97,NNW,335,2.0,2.0,81,0.00,,,0.00,WeatherCatV1.14B232,2013-03-12 06:42:00,
2013-03-12 01:47:00,21.4,16.5,29.96,NNW,335,1.0,2.0,81,0.00,,,0.00,WeatherCatV1.14B232,2013-03-12 06:47:00,
2013-03-12 01:52:00,21.8,16.6,29.96,NNW,333,1.0,2.0,80,0.00,,,0.00,WeatherCatV1.14B232,2013-03-12 06:52:00,
2013-03-12 01:57:00,22.1,16.9,29.96,West,275,3.0,4.0,80,0.00,,,0.00,WeatherCatV1.14B232,2013-03-12 06:57:00,
2013-03-12 02:02:00,22.2,17.3,29.97,WSW,257,2.0,6.0,81,0.00,,,0.00,WeatherCatV1.14B232,2013-03-12 07:02:00,
2013-03-12 02:07:00,22.5,17.6,29.97,West,259,3.0,6.0,81,0.00,,,0.00,WeatherCatV1.14B232,2013-03-12 07:07:00,
2013-03-12 02:12:00,22.9,18.0,29.97,West,259,0.0,4.0,81,0.00,,,0.00,WeatherCatV1.14B232,2013-03-12 07:12:00,
2013-03-12 02:17:00,23.0,18.1,29.98,West,259,3.0,3.0,81,0.00,,,0.00,WeatherCatV1.14B232,2013-03-12 07:17:00,
2013-03-12 02:22:00,23.2,18.3,29.98,West,259,0.0,4.0,81,0.00,,,0.00,WeatherCatV1.14B232,2013-03-12 07:22:00,
2013-03-12 02:27:00,23.2,18.3,29.98,West,259,0.0,3.0,81,0.00,,,0.00,WeatherCatV1.14B232,2013-03-12 07:27:00,
2013-03-12 02:32:00,23.2,18.3,29.99,West,259,0.0,3.0,81,0.00,,,0.00,WeatherCatV1.14B232,2013-03-12 07:32:00,
2013-03-12 02:37:00,23.2,18.3,29.99,West,259,0.0,0.0,81,0.00,,,0.00,WeatherCatV1.14B232,2013-03-12 07:37:00,
2013-03-12 02:42:00,23.3,18.3,29.99,West,259,0.0,0.0,81,0.00,,,0.00,WeatherCatV1.14B232,2013-03-12 07:42:00,
2013-03-12 02:47:00,23.5,18.8,29.99,West,259,0.0,3.0,82,0.00,,,0.00,WeatherCatV1.14B232,2013-03-12 07:47:00,
2013-03-12 02:52:00,23.5,18.8,29.99,West,259,0.0,2.0,82,0.00,,,0.00,WeatherCatV1.14B232,2013-03-12 07:52:00,
2013-03-12 02:57:00,23.5,18.8,29.99,West,259,0.0,2.0,82,0.00,,,0.00,WeatherCatV1.14B232,2013-03-12 07:57:00,
2013-03-12 03:02:00,23.5,18.8,29.99,West,259,1.0,1.0,82,0.00,,,0.00,WeatherCatV1.14B232,2013-03-12 08:02:00,
2013-03-12 03:07:00,23.5,18.8,29.99,West,259,1.0,3.0,82,0.00,,,0.00,WeatherCatV1.14B232,2013-03-12 08:07:00,
2013-03-12 03:12:00,23.5,18.8,29.99,West,259,2.0,2.0,82,0.00,,,0.00,WeatherCatV1.14B232,2013-03-12 08:12:00,
2013-03-12 03:17:00,23.5,18.8,29.98,West,259,1.0,2.0,82,0.00,,,0.00,WeatherCatV1.14B232,2013-03-12 08:17:00,
2013-03-12 03:22:00,23.5,19.1,29.98,West,259,0.0,0.0,83,0.00,,,0.00,WeatherCatV1.14B232,2013-03-12 08:22:00,
2013-03-12 03:27:00,23.3,18.6,29.98,West,259,0.0,0.0,82,0.00,,,0.00,WeatherCatV1.14B232,2013-03-12 08:27:00,
2013-03-12 03:32:00,23.2,18.8,29.99,West,259,0.0,0.0,83,0.00,,,0.00,WeatherCatV1.14B232,2013-03-12 08:32:00,
2013-03-12 03:37:00,23.2,18.8,29.99,West,259,0.0,0.0,83,0.00,,,0.00,WeatherCatV1.14B232,2013-03-12 08:37:00,
2013-03-12 03:42:00,23.0,18.6,29.99,West,259,0.0,0.0,83,0.00,,,0.00,WeatherCatV1.14B232,2013-03-12 08:42:00,
2013-03-12 03:47:00,23.0,18.6,29.99,West,259,0.0,1.0,83,0.00,,,0.00,WeatherCatV1.14B232,2013-03-12 08:47:00,
2013-03-12 03:52:00,23.2,19.1,29.99,West,259,0.0,0.0,84,0.00,,,0.00,WeatherCatV1.14B232,2013-03-12 08:52:00,
2013-03-12 03:57:00,23.2,19.1,29.99,West,259,0.0,1.0,84,0.00,,,0.00,WeatherCatV1.14B232,2013-03-12 08:57:00,
2013-03-12 04:02:00,23.3,19.2,29.99,West,259,0.0,2.0,84,0.00,,,0.00,WeatherCatV1.14B232,2013-03-12 09:02:00,
2013-03-12 04:07:00,23.5,19.7,29.99,West,259,1.0,2.0,85,0.00,,,0.00,WeatherCatV1.14B232,2013-03-12 09:07:00,
2013-03-12 04:12:00,23.8,20.0,29.99,West,259,0.0,2.0,85,0.00,,,0.00,WeatherCatV1.14B232,2013-03-12 09:12:00,
2013-03-12 04:17:00,24.1,20.3,29.98,West,259,0.0,3.0,85,0.00,,,0.00,WeatherCatV1.14B232,2013-03-12 09:17:00,
2013-03-12 04:22:00,24.4,20.6,29.98,West,259,0.0,0.0,85,0.00,,,0.00,WeatherCatV1.14B232,2013-03-12 09:22:00,
2013-03-12 04:27:00,24.4,20.3,29.98,West,259,0.0,0.0,84,0.00,,,0.00,WeatherCatV1.14B232,2013-03-12 09:27:00,
2013-03-12 04:32:00,24.2,20.1,29.98,West,259,2.0,3.0,84,0.00,,,0.00,WeatherCatV1.14B232,2013-03-12 09:32:00,
2013-03-12 04:37:00,24.1,20.0,29.98,West,259,0.0,2.0,84,0.00,,,0.00,WeatherCatV1.14B232,2013-03-12 09:37:00,
2013-03-12 04:42:00,23.9,19.8,29.98,West,259,0.0,0.0,84,0.00,,,0.00,WeatherCatV1.14B232,2013-03-12 09:42:00,
2013-03-12 04:47:00,23.6,19.5,29.97,West,259,0.0,0.0,84,0.00,,,0.00,WeatherCatV1.14B232,2013-03-12 09:47:00,
2013-03-12 04:52:00,23.5,19.7,29.97,West,259,0.0,2.0,85,0.00,,,0.00,WeatherCatV1.14B232,2013-03-12 09:52:00,
2013-03-12 04:57:00,23.5,19.7,29.97,West,259,0.0,1.0,85,0.00,,,0.00,WeatherCatV1.14B232,2013-03-12 09:57:00,
2013-03-12 05:02:00,23.6,20.0,29.97,West,259,0.0,0.0,86,0.00,,,0.00,WeatherCatV1.14B232,2013-03-12 10:02:00,
2013-03-12 05:07:00,23.9,20.3,29.97,West,259,0.0,1.0,86,0.00,,,0.00,WeatherCatV1.14B232,2013-03-12 10:07:00,
2013-03-12 05:12:00,24.1,20.5,29.97,West,259,0.0,0.0,86,0.00,,,0.00,WeatherCatV1.14B232,2013-03-12 10:12:00,
2013-03-12 05:17:00,23.9,20.1,29.97,West,259,0.0,0.0,85,0.00,,,0.00,WeatherCatV1.14B232,2013-03-12 10:17:00,
2013-03-12 05:22:00,23.6,19.8,29.97,West,259,0.0,0.0,85,0.00,,,0.00,WeatherCatV1.14B232,2013-03-12 10:22:00,
2013-03-12 05:27:00,23.3,19.5,29.97,West,259,0.0,0.0,85,0.00,,,0.00,WeatherCatV1.14B232,2013-03-12 10:27:00,
2013-03-12 05:32:00,23.2,19.4,29.98,West,259,0.0,0.0,85,0.00,,,0.00,WeatherCatV1.14B232,2013-03-12 10:32:00,
2013-03-12 05:37:00,23.0,19.2,29.98,West,259,0.0,0.0,85,0.00,,,0.00,WeatherCatV1.14B232,2013-03-12 10:37:00,
2013-03-12 05:42:00,22.9,19.1,29.98,West,259,0.0,0.0,85,0.00,,,0.00,WeatherCatV1.14B232,2013-03-12 10:42:00,
2013-03-12 05:47:00,22.7,18.9,29.98,West,259,0.0,0.0,85,0.00,,,0.00,WeatherCatV1.14B232,2013-03-12 10:47:00,
2013-03-12 05:52:00,22.7,19.2,29.98,West,259,0.0,1.0,86,0.00,,,0.00,WeatherCatV1.14B232,2013-03-12 10:52:00,
2013-03-12 05:57:00,22.7,19.2,29.98,West,259,0.0,0.0,86,0.00,,,0.00,WeatherCatV1.14B232,2013-03-12 10:57:00,
2013-03-12 06:02:00,22.7,19.2,29.99,West,259,0.0,0.0,86,0.00,,,0.00,WeatherCatV1.14B232,2013-03-12 11:02:00,
2013-03-12 06:07:00,22.7,19.2,29.99,West,259,0.0,2.0,86,0.00,,,0.00,WeatherCatV1.14B232,2013-03-12 11:07:00,
2013-03-12 06:12:00,22.9,19.4,29.99,West,259,0.0,0.0,86,0.00,,,0.00,WeatherCatV1.14B232,2013-03-12 11:12:00,
2013-03-12 06:17:00,22.9,19.4,30.00,West,259,0.0,1.0,86,0.00,,,0.00,WeatherCatV1.14B232,2013-03-12 11:17:00,
2013-03-12 06:22:00,23.0,19.5,30.00,West,259,0.0,0.0,86,0.00,,,0.00,WeatherCatV1.14B232,2013-03-12 11:22:00,
2013-03-12 06:27:00,23.0,19.5,30.00,West,259,0.0,4.0,86,0.00,,,0.00,WeatherCatV1.14B232,2013-03-12 11:27:00,
2013-03-12 06:32:00,23.2,19.6,30.00,WSW,250,0.0,2.0,86,0.00,,,0.00,WeatherCatV1.14B232,2013-03-12 11:32:00,
2013-03-12 06:37:00,23.5,19.9,30.00,WSW,252,2.0,5.0,86,0.00,,,0.00,WeatherCatV1.14B232,2013-03-12 11:37:00,
2013-03-12 06:42:00,23.9,20.1,30.00,WSW,252,4.0,4.0,85,0.00,,,0.00,WeatherCatV1.14B232,2013-03-12 11:42:00,
2013-03-12 06:47:00,24.2,20.4,30.00,WSW,252,0.0,4.0,85,0.00,,,0.00,WeatherCatV1.14B232,2013-03-12 11:47:00,
2013-03-12 06:52:00,24.2,20.1,30.00,WSW,252,0.0,1.0,84,0.00,,,0.00,WeatherCatV1.14B232,2013-03-12 11:52:00,
2013-03-12 06:57:00,23.9,19.8,30.00,WSW,252,0.0,1.0,84,0.00,,,0.00,WeatherCatV1.14B232,2013-03-12 11:57:00,
2013-03-12 07:02:00,23.8,19.7,30.00,WSW,253,2.0,4.0,84,0.00,,,0.00,WeatherCatV1.14B232,2013-03-12 12:02:00,
2013-03-12 07:07:00,24.1,20.0,30.00,WSW,254,1.0,5.0,84,0.00,,,0.00,WeatherCatV1.14B232,2013-03-12 12:07:00,
2013-03-12 07:12:00,24.4,20.3,30.00,WSW,254,0.0,3.0,84,0.00,,,0.00,WeatherCatV1.14B232,2013-03-12 12:12:00,
2013-03-12 07:17:00,24.5,20.1,30.01,WSW,254,0.0,0.0,83,0.00,,,0.00,WeatherCatV1.14B232,2013-03-12 12:17:00,
2013-03-12 07:22:00,24.2,19.8,30.01,WSW,254,0.0,2.0,83,0.00,,,0.00,WeatherCatV1.14B232,2013-03-12 12:22:00,
2013-03-12 07:27:00,24.1,19.7,30.01,WSW,254,0.0,0.0,83,0.00,,,0.00,WeatherCatV1.14B232,2013-03-12 12:27:00,
2013-03-12 07:32:00,24.1,19.7,30.02,WSW,254,0.0,2.0,83,0.00,,,0.00,WeatherCatV1.14B232,2013-03-12 12:32:00,
2013-03-12 07:37:00,23.9,19.5,30.02,WSW,254,0.0,2.0,83,0.00,,,0.00,WeatherCatV1.14B232,2013-03-12 12:37:00,
2013-03-12 07:43:00,23.8,19.4,30.02,WSW,254,2.0,3.0,83,0.00,,,0.00,WeatherCatV1.14B232,2013-03-12 12:43:00,
2013-03-12 07:48:00,23.6,19.2,30.02,WSW,257,1.0,4.0,83,0.00,,,0.00,WeatherCatV1.14B232,2013-03-12 12:48:00,
2013-03-12 07:53:00,23.8,19.4,30.02,WNW,303,0.0,4.0,83,0.00,,,0.00,WeatherCatV1.14B232,2013-03-12 12:53:00,
2013-03-12 07:58:00,23.9,19.5,30.02,WNW,300,0.0,2.0,83,0.00,,,0.00,WeatherCatV1.14B232,2013-03-12 12:58:00,
2013-03-12 08:03:00,24.2,19.8,30.03,WNW,300,0.0,2.0,83,0.00,,,0.00,WeatherCatV1.14B232,2013-03-12 13:03:00,
2013-03-12 08:08:00,24.8,20.4,30.03,WSW,254,0.0,2.0,83,0.00,,,0.00,WeatherCatV1.14B232,2013-03-12 13:08:00,
2013-03-12 08:13:00,25.3,20.9,30.03,WSW,254,1.0,2.0,83,0.00,,,0.00,WeatherCatV1.14B232,2013-03-12 13:13:00,
2013-03-12 08:18:00,25.8,21.1,30.04,WSW,257,0.0,5.0,82,0.00,,,0.00,WeatherCatV1.14B232,2013-03-12 13:18:00,
2013-03-12 08:23:00,26.7,21.7,30.04,West,263,0.0,4.0,81,0.00,,,0.00,WeatherCatV1.14B232,2013-03-12 13:23:00,
2013-03-12 08:28:00,27.5,21.9,30.04,West,265,0.0,4.0,79,0.00,,,0.00,WeatherCatV1.14B232,2013-03-12 13:28:00,
2013-03-12 08:33:00,27.9,21.9,30.05,West,266,3.0,3.0,78,0.00,,,0.00,WeatherCatV1.14B232,2013-03-12 13:33:00,
2013-03-12 08:38:00,28.4,22.1,30.05,West,265,1.0,4.0,77,0.00,,,0.00,WeatherCatV1.14B232,2013-03-12 13:38:00,
2013-03-12 08:43:00,28.8,22.2,30.05,WSW,248,2.0,3.0,76,0.00,,,0.00,WeatherCatV1.14B232,2013-03-12 13:43:00,
2013-03-12 08:48:00,29.3,22.4,30.05,WSW,248,2.0,2.0,75,0.00,,,0.00,WeatherCatV1.14B232,2013-03-12 13:48:00,
2013-03-12 08:53:00,29.7,22.4,30.05,West,277,0.0,3.0,74,0.00,,,0.00,WeatherCatV1.14B232,2013-03-12 13:53:00,
2013-03-12 08:58:00,30.0,22.4,30.05,WSW,252,2.0,9.0,73,0.00,,,0.00,WeatherCatV1.14B232,2013-03-12 13:58:00,
2013-03-12 09:03:00,30.3,22.7,30.06,WNW,287,2.0,9.0,73,0.00,,,0.00,WeatherCatV1.14B232,2013-03-12 14:03:00,
2013-03-12 09:08:00,30.6,22.3,30.06,West,259,4.0,10.0,71,0.00,,,0.00,WeatherCatV1.14B232,2013-03-12 14:08:00,
2013-03-12 09:13:00,30.7,22.4,30.06,West,271,3.0,7.0,71,0.00,,,0.00,WeatherCatV1.14B232,2013-03-12 14:13:00,
2013-03-12 09:18:00,30.9,22.3,30.06,WSW,252,4.0,8.0,70,0.00,,,0.00,WeatherCatV1.14B232,2013-03-12 14:18:00,
2013-03-12 09:23:00,31.0,22.4,30.06,NW,322,0.0,7.0,70,0.00,,,0.00,WeatherCatV1.14B232,2013-03-12 14:23:00,
2013-03-12 09:28:00,31.2,22.2,30.06,WNW,286,1.0,10.0,69,0.00,,,0.00,WeatherCatV1.14B232,2013-03-12 14:28:00,
2013-03-12 09:33:00,31.3,22.3,30.06,WNW,294,4.0,9.0,69,0.00,,,0.00,WeatherCatV1.14B232,2013-03-12 14:33:00,
2013-03-12 09:38:00,31.3,22.0,30.06,West,269,2.0,5.0,68,0.00,,,0.00,WeatherCatV1.14B232,2013-03-12 14:38:00,
2013-03-12 09:43:00,31.5,22.2,30.06,West,259,5.0,5.0,68,0.00,,,0.00,WeatherCatV1.14B232,2013-03-12 14:43:00,
2013-03-12 09:48:00,31.6,22.3,30.07,WSW,248,6.0,7.0,68,0.00,,,0.00,WeatherCatV1.14B232,2013-03-12 14:48:00,
2013-03-12 09:53:00,31.8,22.1,30.07,West,269,1.0,10.0,67,0.00,,,0.00,WeatherCatV1.14B232,2013-03-12 14:53:00,
2013-03-12 09:58:00,31.8,22.1,30.07,NW,323,3.0,11.0,67,0.00,,,0.00,WeatherCatV1.14B232,2013-03-12 14:58:00,
2013-03-12 10:03:00,31.9,22.2,30.07,West,268,4.0,6.0,67,0.00,,,0.00,WeatherCatV1.14B232,2013-03-12 15:03:00,
2013-03-12 10:08:00,32.1,22.0,30.07,WSW,246,4.0,9.0,66,0.00,,,0.00,WeatherCatV1.14B232,2013-03-12 15:08:00,
2013-03-12 10:13:00,32.2,22.1,30.07,West,263,1.0,10.0,66,0.00,,,0.00,WeatherCatV1.14B232,2013-03-12 15:13:00,
2013-03-12 10:18:00,32.4,22.0,30.08,SW,229,3.0,14.0,65,0.00,,,0.00,WeatherCatV1.14B232,2013-03-12 15:18:00,
2013-03-12 10:23:00,32.5,22.4,30.08,West,281,3.0,6.0,66,0.00,,,0.00,WeatherCatV1.14B232,2013-03-12 15:23:00,
2013-03-12 10:28:00,32.7,22.6,30.08,WNW,302,1.0,12.0,66,0.00,,,0.00,WeatherCatV1.14B232,2013-03-12 15:28:00,
2013-03-12 10:33:00,32.7,22.6,30.08,WNW,282,4.0,10.0,66,0.00,,,0.00,WeatherCatV1.14B232,2013-03-12 15:33:00,
2013-03-12 10:38:00,32.8,22.7,30.08,NW,317,5.0,6.0,66,0.00,,,0.00,WeatherCatV1.14B232,2013-03-12 15:38:00,
2013-03-12 10:43:00,32.9,22.4,30.08,WSW,252,1.0,10.0,65,0.00,,,0.00,WeatherCatV1.14B232,2013-03-12 15:43:00,
2013-03-12 10:48:00,33.1,22.6,30.09,NE,42,4.0,9.0,65,0.00,,,0.00,WeatherCatV1.14B232,2013-03-12 15:48:00,
2013-03-12 10:53:00,33.1,22.6,30.09,West,271,3.0,5.0,65,0.00,,,0.00,WeatherCatV1.14B232,2013-03-12 15:53:00,
2013-03-12 10:58:00,33.1,22.6,30.09,WSW,256,3.0,8.0,65,0.00,,,0.00,WeatherCatV1.14B232,2013-03-12 15:58:00,
2013-03-12 11:03:00,33.1,23.0,30.09,WSW,252,4.0,6.0,66,0.00,,,0.00,WeatherCatV1.14B232,2013-03-12 16:03:00,
2013-03-12 11:08:00,33.1,22.6,30.09,WNW,300,5.0,6.0,65,0.00,,,0.00,WeatherCatV1.14B232,2013-03-12 16:08:00,
2013-03-12 11:13:00,33.4,22.9,30.09,West,271,2.0,6.0,65,0.00,,,0.00,WeatherCatV1.14B232,2013-03-12 16:13:00,
2013-03-12 11:18:00,33.4,22.9,30.09,NNW,336,10.0,10.0,65,0.00,,,0.00,WeatherCatV1.14B232,2013-03-12 16:18:00,
2013-03-12 11:23:00,33.4,22.9,30.09,West,271,3.0,10.0,65,0.00,,,0.00,WeatherCatV1.14B232,2013-03-12 16:23:00,
2013-03-12 11:28:00,33.7,23.2,30.09,NW,317,4.0,4.0,65,0.00,,,0.00,WeatherCatV1.14B232,2013-03-12 16:28:00,
2013-03-12 11:33:00,34.1,24.0,30.10,NW,307,3.0,11.0,66,0.00,,,0.00,WeatherCatV1.14B232,2013-03-12 16:33:00,
2013-03-12 11:38:00,34.1,23.6,30.10,WNW,299,4.0,10.0,65,0.00,,,0.00,WeatherCatV1.14B232,2013-03-12 16:38:00,
2013-03-12 11:43:00,34.1,23.2,30.10,West,277,0.0,6.0,64,0.00,,,0.00,WeatherCatV1.14B232,2013-03-12 16:43:00,
2013-03-12 11:48:00,34.0,23.5,30.11,WNW,288,7.0,7.0,65,0.00,,,0.00,WeatherCatV1.14B232,2013-03-12 16:48:00,
2013-03-12 11:53:00,33.8,22.9,30.11,NNW,340,11.0,11.0,64,0.00,,,0.00,WeatherCatV1.14B232,2013-03-12 16:53:00,
2013-03-12 11:58:00,33.7,22.8,30.11,SSW,204,4.0,17.0,64,0.00,,,0.00,WeatherCatV1.14B232,2013-03-12 16:58:00,
2013-03-12 12:03:00,33.7,23.2,30.11,NW,319,3.0,12.0,65,0.00,,,0.00,WeatherCatV1.14B232,2013-03-12 17:03:00,
2013-03-12 12:08:00,33.5,23.0,30.11,NNW,338,4.0,6.0,65,0.00,,,0.00,WeatherCatV1.14B232,2013-03-12 17:08:00,
2013-03-12 12:13:00,33.7,22.8,30.11,West,271,3.0,9.0,64,0.00,,,0.00,WeatherCatV1.14B232,2013-03-12 17:13:00,
2013-03-12 12:18:00,34.0,23.5,30.12,NNW,331,6.0,7.0,65,0.00,,,0.00,WeatherCatV1.14B232,2013-03-12 17:18:00,
2013-03-12 12:23:00,34.1,23.2,30.12,West,270,2.0,15.0,64,0.00,,,0.00,WeatherCatV1.14B232,2013-03-12 17:23:00,
2013-03-12 12:28:00,34.0,23.1,30.12,NW,306,10.0,11.0,64,0.00,,,0.00,WeatherCatV1.14B232,2013-03-12 17:28:00,
2013-03-12 12:33:00,33.8,22.2,30.12,West,259,5.0,11.0,62,0.00,,,0.00,WeatherCatV1.14B232,2013-03-12 17:33:00,
2013-03-12 12:38:00,33.8,22.2,30.12,WSW,257,3.0,9.0,62,0.00,,,0.00,WeatherCatV1.14B232,2013-03-12 17:38:00,
2013-03-12 12:43:00,33.8,22.2,30.12,NNW,327,5.0,11.0,62,0.00,,,0.00,WeatherCatV1.14B232,2013-03-12 17:43:00,
2013-03-12 12:48:00,33.5,22.6,30.14,SW,234,3.0,9.0,64,0.00,,,0.00,WeatherCatV1.14B232,2013-03-12 17:48:00,
2013-03-12 12:53:00,33.4,22.6,30.14,WSW,243,2.0,12.0,64,0.00,,,0.00,WeatherCatV1.14B232,2013-03-12 17:53:00,
2013-03-12 12:58:00,33.5,22.3,30.14,NW,322,5.0,12.0,63,0.00,,,0.00,WeatherCatV1.14B232,2013-03-12 17:58:00,
2013-03-12 13:03:00,33.7,22.1,30.14,NNW,341,2.0,5.0,62,0.00,,,0.00,WeatherCatV1.14B232,2013-03-12 18:03:00,
2013-03-12 13:08:00,33.8,21.8,30.14,WNW,299,8.0,15.0,61,0.00,,,0.00,WeatherCatV1.14B232,2013-03-12 18:08:00,
2013-03-12 13:13:00,34.1,22.1,30.14,WNW,286,3.0,8.0,61,0.00,,,0.00,WeatherCatV1.14B232,2013-03-12 18:13:00,
2013-03-12 13:18:00,34.0,22.0,30.14,West,263,10.0,11.0,61,0.00,,,0.00,WeatherCatV1.14B232,2013-03-12 18:18:00,
2013-03-12 13:23:00,33.7,22.1,30.14,WNW,292,2.0,10.0,62,0.00,,,0.00,WeatherCatV1.14B232,2013-03-12 18:23:00,
2013-03-12 13:28:00,33.4,21.8,30.14,WNW,286,3.0,9.0,62,0.00,,,0.00,WeatherCatV1.14B232,2013-03-12 18:28:00,
2013-03-12 13:33:00,33.2,21.2,30.14,WNW,298,7.0,13.0,61,0.00,,,0.00,WeatherCatV1.14B232,2013-03-12 18:33:00,
2013-03-12 13:38:00,33.2,21.2,30.14,NNW,333,4.0,14.0,61,0.00,,,0.00,WeatherCatV1.14B232,2013-03-12 18:38:00,
2013-03-12 13:43:00,33.2,20.8,30.14,WNW,298,6.0,10.0,60,0.00,,,0.00,WeatherCatV1.14B232,2013-03-12 18:43:00,
2013-03-12 13:48:00,33.1,20.7,30.15,NE,34,3.0,10.0,60,0.00,,,0.00,WeatherCatV1.14B232,2013-03-12 18:48:00,
2013-03-12 13:53:00,33.1,20.4,30.15,WNW,295,4.0,7.0,59,0.00,,,0.00,WeatherCatV1.14B232,2013-03-12 18:53:00,
2013-03-12 13:58:00,33.1,20.7,30.15,West,259,8.0,11.0,60,0.00,,,0.00,WeatherCatV1.14B232,2013-03-12 18:58:00,
2013-03-12 14:03:00,33.1,21.1,30.15,NW,305,10.0,10.0,61,0.00,,,0.00,WeatherCatV1.14B232,2013-03-12 19:03:00,
2013-03-12 14:08:00,32.9,20.9,30.15,WNW,298,5.0,12.0,61,0.00,,,0.00,WeatherCatV1.14B232,2013-03-12 19:08:00,
2013-03-12 14:13:00,32.7,20.8,30.15,WNW,283,2.0,7.0,61,0.00,,,0.00,WeatherCatV1.14B232,2013-03-12 19:13:00,
2013-03-12 14:18:00,32.5,20.6,30.15,West,263,3.0,8.0,61,0.00,,,0.00,WeatherCatV1.14B232,2013-03-12 19:18:00,
2013-03-12 14:23:00,32.5,20.9,30.15,WSW,254,6.0,7.0,62,0.00,,,0.00,WeatherCatV1.14B232,2013-03-12 19:23:00,
2013-03-12 14:28:00,32.5,20.6,30.15,WSW,256,0.0,10.0,61,0.00,,,0.00,WeatherCatV1.14B232,2013-03-12 19:28:00,
2013-03-12 14:33:00,32.7,20.4,30.16,West,267,2.0,6.0,60,0.00,,,0.00,WeatherCatV1.14B232,2013-03-12 19:33:00,
2013-03-12 14:38:00,32.5,20.2,30.16,NW,313,3.0,10.0,60,0.00,,,0.00,WeatherCatV1.14B232,2013-03-12 19:38:00,
2013-03-12 14:43:00,32.5,20.6,30.16,NW,319,4.0,6.0,61,0.00,,,0.00,WeatherCatV1.14B232,2013-03-12 19:43:00,
2013-03-12 14:48:00,32.5,20.9,30.16,NW,321,4.0,7.0,62,0.00,,,0.00,WeatherCatV1.14B232,2013-03-12 19:48:00,
2013-03-12 14:53:00,32.5,20.6,30.16,NW,314,5.0,13.0,61,0.00,,,0.00,WeatherCatV1.14B232,2013-03-12 19:53:00,
2013-03-12 14:58:00,32.4,20.5,30.16,West,270,2.0,12.0,61,0.00,,,0.00,WeatherCatV1.14B232,2013-03-12 19:58:00,
2013-03-12 15:03:00,32.4,20.5,30.16,NNW,341,3.0,10.0,61,0.00,,,0.00,WeatherCatV1.14B232,2013-03-12 20:03:00,
2013-03-12 15:08:00,32.2,20.7,30.16,NW,304,3.0,8.0,62,0.00,,,0.00,WeatherCatV1.14B232,2013-03-12 20:08:00,
2013-03-12 15:13:00,32.2,20.7,30.16,WNW,284,1.0,13.0,62,0.00,,,0.00,WeatherCatV1.14B232,2013-03-12 20:13:00,
2013-03-12 15:18:00,32.4,20.5,30.16,West,259,4.0,12.0,61,0.00,,,0.00,WeatherCatV1.14B232,2013-03-12 20:18:00,
2013-03-12 15:23:00,32.5,20.6,30.16,NW,324,3.0,9.0,61,0.00,,,0.00,WeatherCatV1.14B232,2013-03-12 20:23:00,
2013-03-12 15:28:00,32.5,20.6,30.16,WSW,252,2.0,10.0,61,0.00,,,0.00,WeatherCatV1.14B232,2013-03-12 20:28:00,
2013-03-12 15:33:00,32.7,20.0,30.17,WNW,296,1.0,10.0,59,0.00,,,0.00,WeatherCatV1.14B232,2013-03-12 20:33:00,
2013-03-12 15:38:00,32.8,19.7,30.17,NW,304,6.0,11.0,58,0.00,,,0.00,WeatherCatV1.14B232,2013-03-12 20:38:00,
2013-03-12 15:43:00,32.7,20.0,30.17,WNW,298,2.0,10.0,59,0.00,,,0.00,WeatherCatV1.14B232,2013-03-12 20:43:00,
2013-03-12 15:48:00,32.7,20.0,30.17,West,269,3.0,5.0,59,0.00,,,0.00,WeatherCatV1.14B232,2013-03-12 20:48:00,
2013-03-12 15:53:00,32.7,19.6,30.17,NW,310,3.0,12.0,58,0.00,,,0.00,WeatherCatV1.14B232,2013-03-12 20:53:00,
2013-03-12 15:58:00,32.8,20.1,30.17,NW,321,5.0,10.0,59,0.00,,,0.00,WeatherCatV1.14B232,2013-03-12 20:58:00,
2013-03-12 16:03:00,32.7,20.0,30.17,NW,311,6.0,10.0,59,0.00,,,0.00,WeatherCatV1.14B232,2013-03-12 21:03:00,
2013-03-12 16:08:00,32.7,19.6,30.17,WSW,244,5.0,13.0,58,0.00,,,0.00,WeatherCatV1.14B232,2013-03-12 21:08:00,
2013-03-12 16:13:00,32.7,19.6,30.17,WSW,241,4.0,15.0,58,0.00,,,0.00,WeatherCatV1.14B232,2013-03-12 21:13:00,
2013-03-12 16:18:00,32.5,19.8,30.17,NW,311,7.0,12.0,59,0.00,,,0.00,WeatherCatV1.14B232,2013-03-12 21:18:00,
2013-03-12 16:23:00,32.4,19.3,30.17,West,277,5.0,16.0,58,0.00,,,0.00,WeatherCatV1.14B232,2013-03-12 21:23:00,
2013-03-12 16:28:00,32.2,19.1,30.17,NW,312,2.0,14.0,58,0.00,,,0.00,WeatherCatV1.14B232,2013-03-12 21:28:00,
2013-03-12 16:33:00,32.2,19.5,30.17,NW,317,3.0,13.0,59,0.00,,,0.00,WeatherCatV1.14B232,2013-03-12 21:33:00,
2013-03-12 16:38:00,32.2,19.5,30.17,WNW,292,0.0,12.0,59,0.00,,,0.00,WeatherCatV1.14B232,2013-03-12 21:38:00,
2013-03-12 16:43:00,32.1,19.8,30.17,NW,321,4.0,6.0,60,0.00,,,0.00,WeatherCatV1.14B232,2013-03-12 21:43:00,
2013-03-12 16:48:00,32.1,19.8,30.17,NNW,348,5.0,14.0,60,0.00,,,0.00,WeatherCatV1.14B232,2013-03-12 21:48:00,
2013-03-12 16:53:00,32.1,19.8,30.17,NW,316,0.0,16.0,60,0.00,,,0.00,WeatherCatV1.14B232,2013-03-12 21:53:00,
2013-03-12 16:58:00,32.2,19.5,30.17,WNW,298,4.0,14.0,59,0.00,,,0.00,WeatherCatV1.14B232,2013-03-12 21:58:00,
2013-03-12 17:03:00,32.2,19.5,30.18,NW,309,6.0,14.0,59,0.00,,,0.00,WeatherCatV1.14B232,2013-03-12 22:03:00,
2013-03-12 17:09:00,32.2,19.5,30.18,WSW,252,11.0,13.0,59,0.00,,,0.00,WeatherCatV1.14B232,2013-03-12 22:09:00,
2013-03-12 17:14:00,32.2,19.1,30.18,WNW,298,4.0,10.0,58,0.00,,,0.00,WeatherCatV1.14B232,2013-03-12 22:14:00,
2013-03-12 17:19:00,32.2,19.1,30.19,NNW,336,5.0,7.0,58,0.00,,,0.00,WeatherCatV1.14B232,2013-03-12 22:19:00,
2013-03-12 17:24:00,32.1,18.6,30.19,NW,313,3.0,9.0,57,0.00,,,0.00,WeatherCatV1.14B232,2013-03-12 22:24:00,
2013-03-12 17:29:00,31.9,18.4,30.19,West,271,5.0,10.0,57,0.00,,,0.00,WeatherCatV1.14B232,2013-03-12 22:29:00,
2013-03-12 17:34:00,31.8,18.3,30.19,WSW,244,4.0,12.0,57,0.00,,,0.00,WeatherCatV1.14B232,2013-03-12 22:34:00,
2013-03-12 17:39:00,31.6,18.9,30.19,NW,317,4.0,14.0,59,0.00,,,0.00,WeatherCatV1.14B232,2013-03-12 22:39:00,
2013-03-12 17:44:00,31.5,18.8,30.19,West,266,5.0,10.0,59,0.00,,,0.00,WeatherCatV1.14B232,2013-03-12 22:44:00,
2013-03-12 17:49:00,31.5,18.8,30.19,NNW,333,12.0,23.0,59,0.00,,,0.00,WeatherCatV1.14B232,2013-03-12 22:49:00,
2013-03-12 17:54:00,31.5,18.4,30.19,NNW,334,4.0,14.0,58,0.00,,,0.00,WeatherCatV1.14B232,2013-03-12 22:54:00,
2013-03-12 17:59:00,31.6,18.5,30.19,NW,313,6.0,7.0,58,0.00,,,0.00,WeatherCatV1.14B232,2013-03-12 22:59:00,
2013-03-12 18:04:00,31.6,18.9,30.19,WNW,296,2.0,14.0,59,0.00,,,0.00,WeatherCatV1.14B232,2013-03-12 23:04:00,
2013-03-12 18:09:00,31.5,19.2,30.19,West,270,6.0,11.0,60,0.00,,,0.00,WeatherCatV1.14B232,2013-03-12 23:09:00,
2013-03-12 18:14:00,31.5,18.8,30.19,WNW,303,4.0,14.0,59,0.00,,,0.00,WeatherCatV1.14B232,2013-03-12 23:14:00,
2013-03-12 18:19:00,31.3,18.7,30.19,West,268,7.0,16.0,59,0.00,,,0.00,WeatherCatV1.14B232,2013-03-12 23:19:00,
2013-03-12 18:24:00,31.3,18.7,30.19,WNW,282,4.0,9.0,59,0.00,,,0.00,WeatherCatV1.14B232,2013-03-12 23:24:00,
2013-03-12 18:29:00,31.3,18.3,30.19,WSW,246,1.0,7.0,58,0.00,,,0.00,WeatherCatV1.14B232,2013-03-12 23:29:00,
2013-03-12 18:34:00,31.3,18.7,30.19,NW,316,5.0,8.0,59,0.00,,,0.00,WeatherCatV1.14B232,2013-03-12 23:34:00,
2013-03-12 18:39:00,31.2,18.6,30.19,West,271,4.0,11.0,59,0.00,,,0.00,WeatherCatV1.14B232,2013-03-12 23:39:00,
2013-03-12 18:44:00,31.0,18.0,30.19,WSW,240,3.0,9.0,58,0.00,,,0.00,WeatherCatV1.14B232,2013-03-12 23:44:00,
2013-03-12 18:49:00,31.0,18.4,30.20,NW,311,1.0,5.0,59,0.00,,,0.00,WeatherCatV1.14B232,2013-03-12 23:49:00,
2013-03-12 18:54:00,30.9,18.3,30.20,NW,315,6.0,11.0,59,0.00,,,0.00,WeatherCatV1.14B232,2013-03-12 23:54:00,
2013-03-12 18:59:00,30.9,18.3,30.20,NNW,330,4.0,11.0,59,0.00,,,0.00,WeatherCatV1.14B232,2013-03-12 23:59:00,
2013-03-12 19:04:00,30.7,18.1,30.20,NNW,331,3.0,16.0,59,0.00,,,0.00,WeatherCatV1.14B232,2013-03-13 00:04:00,
2013-03-12 19:09:00,30.7,18.5,30.20,WNW,290,5.0,10.0,60,0.00,,,0.00,WeatherCatV1.14B232,2013-03-13 00:09:00,
2013-03-12 19:14:00,30.6,18.0,30.21,WNW,284,5.0,13.0,59,0.00,,,0.00,WeatherCatV1.14B232,2013-03-13 00:14:00,
2013-03-12 19:19:00,30.6,18.0,30.21,NW,309,5.0,11.0,59,0.00,,,0.00,WeatherCatV1.14B232,2013-03-13 00:19:00,
2013-03-12 19:24:00,30.6,18.4,30.21,West,275,3.0,6.0,60,0.00,,,0.00,WeatherCatV1.14B232,2013-03-13 00:24:00,
2013-03-12 19:29:00,30.6,18.0,30.21,West,259,7.0,7.0,59,0.00,,,0.00,WeatherCatV1.14B232,2013-03-13 00:29:00,
2013-03-12 19:34:00,30.4,17.8,30.21,WSW,249,9.0,11.0,59,0.00,,,0.00,WeatherCatV1.14B232,2013-03-13 00:34:00,
2013-03-12 19:39:00,30.4,18.2,30.21,NNW,327,3.0,9.0,60,0.00,,,0.00,WeatherCatV1.14B232,2013-03-13 00:39:00,
2013-03-12 19:44:00,30.4,18.6,30.22,NNW,331,1.0,10.0,61,0.00,,,0.00,WeatherCatV1.14B232,2013-03-13 00:44:00,
2013-03-12 19:49:00,30.3,19.2,30.22,NNW,336,12.0,12.0,63,0.00,,,0.00,WeatherCatV1.14B232,2013-03-13 00:49:00,
2013-03-12 19:54:00,30.1,18.7,30.22,WNW,290,6.0,9.0,62,0.00,,,0.00,WeatherCatV1.14B232,2013-03-13 00:54:00,
2013-03-12 19:59:00,30.0,18.2,30.22,WNW,298,1.0,11.0,61,0.00,,,0.00,WeatherCatV1.14B232,2013-03-13 00:59:00,
2013-03-12 20:04:00,30.0,18.6,30.22,NW,321,2.0,10.0,62,0.00,,,0.00,WeatherCatV1.14B232,2013-03-13 01:04:00,
2013-03-12 20:09:00,29.8,18.8,30.22,WNW,288,5.0,6.0,63,0.00,,,0.00,WeatherCatV1.14B232,2013-03-13 01:09:00,
2013-03-12 20:14:00,29.8,18.8,30.22,WNW,289,3.0,12.0,63,0.00,,,0.00,WeatherCatV1.14B232,2013-03-13 01:14:00,
2013-03-12 20:19:00,29.7,19.0,30.22,WNW,300,6.0,11.0,64,0.00,,,0.00,WeatherCatV1.14B232,2013-03-13 01:19:00,
2013-03-12 20:24:00,29.5,18.8,30.22,WNW,282,5.0,9.0,64,0.00,,,0.00,WeatherCatV1.14B232,2013-03-13 01:24:00,
2013-03-12 20:29:00,29.4,19.1,30.22,NW,319,4.0,13.0,65,0.00,,,0.00,WeatherCatV1.14B232,2013-03-13 01:29:00,
2013-03-12 20:34:00,29.4,19.1,30.22,NW,306,3.0,10.0,65,0.00,,,0.00,WeatherCatV1.14B232,2013-03-13 01:34:00,
2013-03-12 20:39:00,29.3,19.4,30.22,NW,325,2.0,7.0,66,0.00,,,0.00,WeatherCatV1.14B232,2013-03-13 01:39:00,
2013-03-12 20:44:00,29.1,19.5,30.23,NW,323,4.0,12.0,67,0.00,,,0.00,WeatherCatV1.14B232,2013-03-13 01:44:00,
2013-03-12 20:49:00,29.0,19.4,30.23,NNW,328,3.0,9.0,67,0.00,,,0.00,WeatherCatV1.14B232,2013-03-13 01:49:00,
2013-03-12 20:54:00,28.7,19.5,30.23,NW,325,0.0,7.0,68,0.00,,,0.00,WeatherCatV1.14B232,2013-03-13 01:54:00,
2013-03-12 20:59:00,28.7,19.5,30.23,NW,325,0.0,5.0,68,0.00,,,0.00,WeatherCatV1.14B232,2013-03-13 01:59:00,
2013-03-12 21:04:00,28.7,19.8,30.23,NNW,339,0.0,7.0,69,0.00,,,0.00,WeatherCatV1.14B232,2013-03-13 02:04:00,
2013-03-12 21:09:00,28.7,19.8,30.23,NNW,330,1.0,6.0,69,0.00,,,0.00,WeatherCatV1.14B232,2013-03-13 02:09:00,
2013-03-12 21:14:00,28.8,20.3,30.23,NW,307,3.0,8.0,70,0.00,,,0.00,WeatherCatV1.14B232,2013-03-13 02:14:00,
2013-03-12 21:19:00,28.8,20.3,30.23,WNW,290,2.0,11.0,70,0.00,,,0.00,WeatherCatV1.14B232,2013-03-13 02:19:00,
2013-03-12 21:24:00,28.8,20.3,30.23,NW,305,3.0,4.0,70,0.00,,,0.00,WeatherCatV1.14B232,2013-03-13 02:24:00,
2013-03-12 21:29:00,28.8,20.3,30.23,NW,308,2.0,11.0,70,0.00,,,0.00,WeatherCatV1.14B232,2013-03-13 02:29:00,
2013-03-12 21:34:00,28.8,20.3,30.23,NW,324,3.0,7.0,70,0.00,,,0.00,WeatherCatV1.14B232,2013-03-13 02:34:00,
2013-03-12 21:39:00,29.0,20.5,30.23,NW,319,0.0,3.0,70,0.00,,,0.00,WeatherCatV1.14B232,2013-03-13 02:39:00,
2013-03-12 21:44:00,28.8,20.6,30.24,NW,305,3.0,7.0,71,0.00,,,0.00,WeatherCatV1.14B232,2013-03-13 02:44:00,
2013-03-12 21:49:00,28.8,20.3,30.24,NW,313,2.0,7.0,70,0.00,,,0.00,WeatherCatV1.14B232,2013-03-13 02:49:00,
2013-03-12 21:54:00,28.8,20.3,30.24,WNW,293,0.0,9.0,70,0.00,,,0.00,WeatherCatV1.14B232,2013-03-13 02:54:00,
2013-03-12 21:59:00,28.8,20.3,30.24,NNW,333,0.0,8.0,70,0.00,,,0.00,WeatherCatV1.14B232,2013-03-13 02:59:00,
2013-03-12 22:04:00,28.7,19.8,30.24,NNW,327,2.0,10.0,69,0.00,,,0.00,WeatherCatV1.14B232,2013-03-13 03:04:00,
2013-03-12 22:09:00,28.5,19.6,30.24,NNW,332,3.0,5.0,69,0.00,,,0.00,WeatherCatV1.14B232,2013-03-13 03:09:00,
2013-03-12 22:14:00,28.4,19.5,30.25,NW,319,2.0,9.0,69,0.00,,,0.00,WeatherCatV1.14B232,2013-03-13 03:14:00,
2013-03-12 22:19:00,28.2,19.4,30.25,NW,317,1.0,9.0,69,0.00,,,0.00,WeatherCatV1.14B232,2013-03-13 03:19:00,
2013-03-12 22:24:00,28.1,19.3,30.25,NW,320,2.0,9.0,69,0.00,,,0.00,WeatherCatV1.14B232,2013-03-13 03:24:00,
2013-03-12 22:29:00,27.9,19.1,30.25,NNW,328,3.0,7.0,69,0.00,,,0.00,WeatherCatV1.14B232,2013-03-13 03:29:00,
2013-03-12 22:34:00,27.8,19.0,30.25,WNW,282,4.0,12.0,69,0.00,,,0.00,WeatherCatV1.14B232,2013-03-13 03:34:00,
2013-03-12 22:39:00,27.6,18.4,30.25,WNW,302,2.0,6.0,68,0.00,,,0.00,WeatherCatV1.14B232,2013-03-13 03:39:00,
2013-03-12 22:44:00,27.5,18.7,30.25,NNW,327,1.0,7.0,69,0.00,,,0.00,WeatherCatV1.14B232,2013-03-13 03:44:00,
2013-03-12 22:49:00,27.3,18.5,30.25,NW,321,0.0,11.0,69,0.00,,,0.00,WeatherCatV1.14B232,2013-03-13 03:49:00,
2013-03-12 22:54:00,27.2,18.4,30.25,West,264,2.0,4.0,69,0.00,,,0.00,WeatherCatV1.14B232,2013-03-13 03:54:00,
2013-03-12 22:59:00,27.0,18.5,30.25,NNW,334,3.0,4.0,70,0.00,,,0.00,WeatherCatV1.14B232,2013-03-13 03:59:00,
2013-03-12 23:00:00,27.0,18.5,30.25,NNW,334,1.0,4.0,70,0.00,,,0.00,WeatherCatV1.14B232,2013-03-13 04:00:00,
2013-03-12 23:01:00,27.0,18.5,30.25,NNW,340,2.0,6.0,70,0.00,,,0.00,WeatherCatV1.14B232,2013-03-13 04:01:00,
2013-03-12 23:06:00,26.9,18.4,30.25,NNW,329,4.0,9.0,70,0.00,,,0.00,WeatherCatV1.14B232,2013-03-13 04:06:00,
2013-03-12 23:11:00,26.7,18.3,30.25,NNW,348,0.0,6.0,70,0.00,,,0.00,WeatherCatV1.14B232,2013-03-13 04:11:00,
2013-03-12 23:16:00,26.6,18.2,30.26,West,280,3.0,4.0,70,0.00,,,0.00,WeatherCatV1.14B232,2013-03-13 04:16:00,
2013-03-12 23:17:00,26.6,18.2,30.26,West,278,0.0,3.0,70,0.00,,,0.00,WeatherCatV1.14B232,2013-03-13 04:17:00,
2013-03-12 23:22:00,26.4,18.3,30.26,NW,325,1.0,5.0,71,0.00,,,0.00,WeatherCatV1.14B232,2013-03-13 04:22:00,
2013-03-12 23:27:00,26.3,18.2,30.26,NW,325,0.0,5.0,71,0.00,,,0.00,WeatherCatV1.14B232,2013-03-13 04:27:00,
2013-03-12 23:32:00,26.1,18.0,30.26,NW,323,0.0,2.0,71,0.00,,,0.00,WeatherCatV1.14B232,2013-03-13 04:32:00,
2013-03-12 23:37:00,26.0,17.9,30.26,NNW,333,0.0,2.0,71,0.00,,,0.00,WeatherCatV1.14B232,2013-03-13 04:37:00,
2013-03-12 23:42:00,25.8,18.0,30.26,NNW,333,0.0,3.0,72,0.00,,,0.00,WeatherCatV1.14B232,2013-03-13 04:42:00,
2013-03-12 23:47:00,25.7,17.9,30.26,NNW,333,0.0,2.0,72,0.00,,,0.00,WeatherCatV1.14B232,2013-03-13 04:47:00,
2013-03-12 23:52:00,25.7,17.9,30.26,NW,323,1.0,6.0,72,0.00,,,0.00,WeatherCatV1.14B232,2013-03-13 04:52:00,
2013-03-12 23:57:00,25.7,17.6,30.26,NW,315,4.0,4.0,71,0.00,,,0.00,WeatherCatV1.14B232,2013-03-13 04:57:00,